Powrót do katalogu

FENGYUN 1C DEB

AktywnyPO
NORAD 38514·DEBRIS·🇨🇳 China

Wystrzelony May 10, 1999 z Taiyuan Satellite Launch Center

Loading…

Następne Przeloty (najbliższe 24 godziny)

TLE

Starzejące sięSource: Space-Track

Epoka: Sep 11, 2026, 06:12 UTC

1 38514U 99025ESZ 26254.25896524  .00002949  00000-0  10152-2 0  9991
2 38514  98.0499 264.2311 0246790 294.8542  62.7160 14.20979796918614

Śledź FENGYUN 1C DEB w czasie rzeczywistym z AllMySat

Download on the App Store